TimePDT,TemperatureF,Dew PointF,Humidity,Sea Level PressureIn,VisibilityMPH,Wind Direction,Wind SpeedMPH,Gust SpeedMPH,PrecipitationIn,Events,Conditions,WindDirDegrees,DateUTC
12:53 AM,57.0,48.9,74,29.88,10.0,SSW,15.0,-,0.00,Rain,Light Rain,200,2012-10-28 07:53:00
1:53 AM,57.0,50.0,77,29.88,10.0,SSW,10.4,-,0.01,,Overcast,200,2012-10-28 08:53:00
2:53 AM,57.0,51.1,81,29.88,9.0,SSW,13.8,-,0.00,Rain,Light Rain,210,2012-10-28 09:53:00
3:53 AM,55.0,51.1,86,29.89,10.0,South,3.5,-,0.01,Rain,Light Rain,170,2012-10-28 10:53:00
4:53 AM,54.0,51.1,90,29.88,10.0,South,6.9,-,0.00,,Overcast,180,2012-10-28 11:53:00
5:53 AM,55.9,51.1,84,29.89,10.0,Calm,Calm,-,N/A,,Mostly Cloudy,0,2012-10-28 12:53:00
6:53 AM,55.9,52.0,87,29.90,10.0,West,16.1,-,N/A,,Mostly Cloudy,260,2012-10-28 13:53:00
7:53 AM,55.9,51.1,84,29.91,10.0,West,12.7,-,N/A,,Overcast,260,2012-10-28 14:53:00
8:53 AM,55.9,50.0,80,29.91,10.0,West,15.0,-,N/A,,Overcast,260,2012-10-28 15:53:00
9:53 AM,57.0,50.0,77,29.91,10.0,West,13.8,-,N/A,,Overcast,260,2012-10-28 16:53:00
10:53 AM,55.9,51.1,84,29.93,8.0,West,11.5,-,0.05,Rain,Light Rain,260,2012-10-28 17:53:00
11:53 AM,55.9,51.1,84,29.93,10.0,WSW,10.4,-,0.00,,Overcast,250,2012-10-28 18:53:00
12:53 PM,57.9,52.0,81,29.92,10.0,SSW,10.4,-,N/A,,Overcast,210,2012-10-28 19:53:00
1:53 PM,59.0,51.1,75,29.91,10.0,South,4.6,-,N/A,,Overcast,170,2012-10-28 20:53:00
2:53 PM,57.9,52.0,81,29.90,10.0,Calm,Calm,-,0.00,Rain,Light Rain,0,2012-10-28 21:53:00
3:53 PM,57.0,54.0,89,29.91,7.0,Calm,Calm,-,0.01,Rain,Light Rain,0,2012-10-28 22:53:00
4:53 PM,55.9,54.0,93,29.90,7.0,East,3.5,-,0.04,Rain,Light Rain,90,2012-10-28 23:53:00
5:53 PM,54.0,54.0,100,29.89,4.0,North,4.6,-,0.07,Rain,Light Rain,10,2012-10-29 00:53:00
6:53 PM,53.1,52.0,96,29.89,8.0,Calm,Calm,-,0.03,Rain,Light Rain,0,2012-10-29 01:53:00
7:37 PM,53.6,53.6,100,29.90,1.0,SE,8.1,-,N/A,Rain,Light Rain,130,2012-10-29 02:37:00
7:53 PM,53.1,53.1,100,29.88,1.0,SSE,8.1,-,0.01,Rain,Light Rain,150,2012-10-29 02:53:00
8:00 PM,53.6,53.6,100,29.89,5.0,SSE,5.8,-,0.00,Rain,Light Rain,150,2012-10-29 03:00:00
8:03 PM,53.6,53.6,100,29.89,1.5,SSE,4.6,-,0.00,Rain,Light Rain,150,2012-10-29 03:03:00
8:05 PM,53.6,53.6,100,29.89,0.8,SSE,4.6,-,0.00,Rain,Light Rain,150,2012-10-29 03:05:00
8:15 PM,53.6,53.6,100,29.88,1.5,SE,4.6,-,0.00,Rain,Light Rain,130,2012-10-29 03:15:00
8:17 PM,53.6,53.6,100,29.88,3.0,ESE,4.6,-,0.01,Rain,Light Rain,120,2012-10-29 03:17:00
8:53 PM,53.1,53.1,100,29.86,10.0,East,4.6,-,0.01,Rain,Light Rain,90,2012-10-29 03:53:00
9:53 PM,53.1,53.1,100,29.86,10.0,SSE,4.6,-,0.00,,Overcast,160,2012-10-29 04:53:00
10:53 PM,55.0,53.1,93,29.86,10.0,South,6.9,-,0.00,,Overcast,190,2012-10-29 05:53:00
11:53 PM,57.0,54.0,89,29.84,10.0,SSW,4.6,-,N/A,,Overcast,210,2012-10-29 06:53:00